This is the latest recevied weather packets stored in our database for station/object IZ1UKX-13. If no packets are shown the sender has not sent any weather packets the latest 10 day(s).
| Time | Temp. | Humidity | Pressure | Rain* | Wind** | Luminosity | Snow |
|---|---|---|---|---|---|---|---|
| 1778147443 | 13.89° C | 90% | 1024 hPa | 0.76 mm | - | 0 W/m² | - |
| 1778147144 | 13.33° C | 90% | 1024 hPa | 0.76 mm | - | 0 W/m² | - |
| 1778146844 | 13.33° C | 91% | 1024.5 hPa | 0.76 mm | - | 0 W/m² | - |
| 1778146543 | 12.78° C | 90% | 1024.5 hPa | 0.76 mm | - | 0 W/m² | - |
| 1778146244 | 12.78° C | 90% | 1024.5 hPa | 0.76 mm | - | 0 W/m² | - |
| 1778145944 | 12.78° C | 90% | 1024.5 hPa | 0.51 mm | - | 0 W/m² | - |
| 1778145644 | 12.78° C | 90% | 1024.5 hPa | 0.51 mm | - | 0 W/m² | - |
| 1778145343 | 12.78° C | 89% | 1024.5 hPa | 0.51 mm | - | 0 W/m² | - |
| 1778145043 | 12.78° C | 89% | 1024.5 hPa | 0.51 mm | - | 0 W/m² | - |
| 1778144744 | 12.78° C | 88% | 1024.5 hPa | 0.51 mm | - | 0 W/m² | - |
| 1778144444 | 12.78° C | 87% | 1024.5 hPa | 0 mm | - | 0 W/m² | - |
| 1778144144 | 12.78° C | 86% | 1024.5 hPa | 0 mm | - | 0 W/m² | - |
| 1778143844 | 13.33° C | 86% | 1024.5 hPa | 0 mm | - | 0 W/m² | - |
| 1778143543 | 13.33° C | 83% | 1024.5 hPa | 0 mm | - | 0 W/m² | - |
| 1778143244 | 13.33° C | 81% | 1024.5 hPa | 0 mm | - | 0 W/m² | - |
| 1778142944 | 13.33° C | 77% | 1024.5 hPa | 0 mm | - | 0 W/m² | - |
| 1778142644 | 13.89° C | 77% | 1024 hPa | 0 mm | - | 0 W/m² | - |
| 1778142344 | 13.89° C | 76% | 1024 hPa | 0 mm | - | 0 W/m² | - |
| 1778142043 | 13.89° C | 75% | 1024 hPa | 0 mm | - | 0 W/m² | - |
| 1778141744 | 14.44° C | 75% | 1024 hPa | 0 mm | - | 0 W/m² | - |
| 1778141444 | 14.44° C | 75% | 1024 hPa | 0 mm | - | 0 W/m² | - |
| 1778141144 | 14.44° C | 74% | 1024 hPa | 0 mm | - | 0 W/m² | - |
| 1778140843 | 15° C | 72% | 1024 hPa | 0 mm | - | 0 W/m² | - |
| 1778140544 | 15° C | 70% | 1024 hPa | 0 mm | - | 0 W/m² | - |
| 1778140243 | 15.56° C | 68% | 1024 hPa | 0 mm | - | 0 W/m² | - |
* Rain latest hour (hover to see other rain measurements)
** Current wind speed in m/s (hover to see current wind gust speed)